[[{"header":{"parameterUnit":"m.s-1","parameterCategory":1,"la1":30.2991,"la2":30.254,"lo1":-89.0895,"lo2":-89.0444,"dy":0.0017,"dx":0.0017,"nx":28,"ny":28,"refTime":"2025-02-24T09:00:00:Z","depth":0,"parameterNumber":2,"parameterNumberName":"U-component_of_WINDS"},"data":[0,0,0,0,0,0,0,0,0,0,0,0,0,0,0,0,0,0,0,0,0,0,0,0,0,0,0,0,0,0,0,0,0,0,0,0,0,0,0,0,0,0,0,0,0,0,0,0,0,0,0,0,0,0,0,0,0,0,0.4919,0.4919,0,0.4909,0.4909,0.4909,0.4896,0.4896,0.4896,0.4895,0.4885,0.4885,0.4885,0,0,0,0,0,0,0,0,0,0,0,0,0,0.4929,0.4929,0.4919,0.4919,0.4919,0.4909,0.4909,0.4909,0.4896,0.4896,0.4896,0.4895,0.4885,0.4885,0.4885,0,0,0,0,0,0,0,0,0,0,0,0,0,0.4923,0.4929,0.4919,0.4912,0.4911,0.4909,0.4909,0.4909,0.4896,0.4896,0.4896,0.4895,0.4885,0.4885,0.4885,0.4889,0,0,0.4884,0.4884,0,0,0,0,0,0,0,0,0.4923,0.4922,0.4913,0.4912,0.4911,0.4903,0.4908,0.4902,0.4896,0.4902,0.4895,0.4895,0.4891,0.4891,0.4889,0.4889,0.4889,0.4884,0.4884,0.4884,0.4884,0,0,0,0,0,0,0,0.4923,0.4923,0.4915,0.4913,0.4912,0.4909,0.4908,0.4907,0.4898,0.4901,0.49,0.4899,0.4891,0.4889,0.4889,0.4888,0.4884,0.4884,0.4884,0.4884,0.4893,0.4893,0,0,0,0,0,0,0.4925,0.4923,0.4916,0.4915,0.4917,0.4909,0.4908,0.4906,0.4898,0.4897,0.4899,0.4899,0.489,0.4889,0.4888,0.4894,0.4884,0.4884,0.4884,0.4892,0.4893,0.4893,0,0,0,0,0,0,0.4925,0.4924,0.4916,0.4919,0.4917,0.4909,0.4908,0.4906,0.4905,0.4897,0.4895,0.49,0.489,0.4889,0.489,0.4894,0.4884,0.4884,0.4892,0.4893,0.4893,0.4906,0,0,0,0,0,0,0.4926,0.4925,0.4926,0.4919,0.4917,0.4917,0.4908,0.4906,0.4905,0.4903,0.4897,0.4895,0.4889,0.489,0.4889,0.4893,0.4883,0.4892,0.4892,0.4893,0.4905,0.4906,0.4908,0,0,0,0,0,0.4926,0.493,0.4926,0.4925,0.4919,0.4917,0.4916,0.4909,0.4905,0.4907,0.4902,0.4895,0.4893,0.489,0.4889,0.4893,0.4891,0.4892,0.4893,0.4904,0.4906,0.4908,0,0,0,0,0,0,0.4937,0.4929,0.4925,0.4926,0.4923,0.4915,0.4917,0.4912,0.4909,0.4908,0.49,0.4898,0.49,0.4897,0.4893,0.4898,0.4892,0.4892,0.49,0.4902,0.4904,0.4904,0.4883,0,0,0,0,0,0.494,0.4939,0.4932,0.4934,0.4932,0.4925,0.4924,0.4919,0.4915,0.4913,0.4908,0.4905,0.4903,0.4903,0.4901,0.4904,0.4903,0.4907,0.4908,0.491,0.491,0.4913,0.4915,0.4896,0.4896,0.4896,0,0,0.4946,0.4941,0.4941,0.4936,0.4933,0.4933,0.4924,0.4924,0.4923,0.4913,0.4914,0.491,0.4906,0.4908,0.4909,0.4906,0.4916,0.4911,0.4912,0.4912,0.4914,0.4916,0.4917,0.4896,0.4896,0.4896,0,0,0.4956,0.4952,0.4954,0.4951,0.4946,0.4941,0.4942,0.4935,0.4932,0.4933,0.4926,0.4926,0.4923,0.4921,0.4919,0.4929,0.4924,0.4929,0.4937,0.494,0.4941,0.4942,0.4947,0.4948,0.493,0.493,0.493,0,0.4963,0.4962,0.4955,0.4956,0.4954,0.4945,0.4947,0.4945,0.494,0.4939,0.4935,0.4933,0.4929,0.4931,0.4934,0.4933,0.4933,0.493,0.4942,0.4943,0.4944,0.4948,0.4949,0.493,0.493,0.493,0.493,0,0.4972,0.4972,0.4974,0.4969,0.4968,0.4969,0.4963,0.4962,0.4958,0.4954,0.4955,0.4951,0.4948,0.4948,0.4944,0.495,0.4948,0.4943,0.4936,0.4946,0.495,0.4951,0.4931,0.4931,0.4931,0.4931,0,0,0.4988,0.4981,0.4981,0.498,0.4974,0.4974,0.4975,0.4973,0.4973,0.497,0.4972,0.497,0.4966,0.4964,0.4959,0.4962,0.4971,0.4956,0.4956,0.496,0.4979,0.4982,0.4984,0.4967,0.4968,0.4968,0.4979,0,0.4997,0.4999,0.4993,0.4996,0.4996,0.4988,0.499,0.4987,0.4983,0.4983,0.4979,0.4979,0.4973,0.4972,0.4973,0.4969,0.4975,0.4969,0.4969,0.4969,0.497,0.4986,0.499,0.5,0.498,0.4981,0.4981,0,0.5008,0.5006,0.5009,0.5005,0.5004,0.5006,0.5004,0.5003,0.5,0.4998,0.4996,0.4991,0.4992,0.4986,0.4988,0.4984,0.4984,0.4983,0.4983,0.4982,0.4975,0.4986,0.5004,0.5005,0.4983,0.4983,0.4982,0,0.502,0.5018,0.502,0.5019,0.5013,0.5014,0.5012,0.5009,0.5008,0.5007,0.5007,0.5005,0.5004,0.5004,0.4999,0.4994,0.5002,0.4995,0.5,0.5,0.5002,0.5002,0.5019,0.5002,0.5001,0.5001,0.5001,0,0.503,0.5033,0.5025,0.5026,0.5029,0.5023,0.5026,0.5023,0.502,0.5021,0.5015,0.5016,0.5009,0.5009,0.5005,0.5008,0.5008,0.5006,0.5005,0.5007,0.5007,0.5006,0.5005,0.5002,0.5002,0.5002,0.5002,0,0.5044,0.5039,0.5041,0.5036,0.5035,0.5037,0.5033,0.5034,0.5031,0.5032,0.5032,0.5026,0.5027,0.5022,0.5021,0.5018,0.5023,0.502,0.5024,0.5023,0.5029,0.5028,0.5047,0.5049,0.503,0.503,0.503,0,0.5051,0.5053,0.5048,0.5048,0.5047,0.5047,0.5047,0.5041,0.5041,0.5038,0.504,0.504,0.5039,0.504,0.5036,0.5036,0.5034,0.504,0.5033,0.5035,0.5034,0.5034,0.5034,0.5041,0.5042,0.5042,0.5042,0,0.5064,0.5062,0.5062,0.5061,0.5061,0.506,0.5058,0.5059,0.5053,0.5053,0.5053,0.5053,0.5053,0.5053,0.5052,0.505,0.5045,0.5044,0.5046,0.5047,0.5049,0.5049,0.5028,0.5044,0.5044,0.5043,0.5043,0.5043,0.5075,0.5076,0.5074,0.5074,0.5073,0.5072,0.5073,0.507,0.507,0.5069,0.5066,0.5067,0.5065,0.5063,0.5062,0.5063,0.506,0.5062,0.5062,0.5063,0.5064,0.5049,0.5063,0.5063,0.5063,0.5063,0.5063,0,0.5088,0.5086,0.5087,0.5085,0.5086,0.5081,0.508,0.508,0.5082,0.508,0.508,0.5081,0.5081,0.5078,0.5078,0.508,0.5078,0.508,0.508,0.508,0.5067,0.5066,0.5082,0.5082,0.5082,0.5082,0.5082,0.5082,0.5095,0.5098,0.5095,0.5098,0.5096,0.5097,0.5097,0.5096,0.5095,0.5096,0.5097,0.5095,0.5093,0.5093,0.5093,0.5092,0.5093,0.5096,0.5094,0.5082,0.508,0.5079,0.5078,0.5096,0.5096,0.5107,0.5107,0.5107]},{"header":{"parameterUnit":"m.s-1","parameterCategory":1,"la1":30.2991,"la2":30.254,"lo1":-89.0895,"lo2":-89.0444,"dy":0.0017,"dx":0.0017,"nx":28,"ny":28,"refTime":"2025-02-24T09:00:00:Z","depth":0,"parameterNumber":3,"parameterNumberName":"V-component_of_WINDS"},"data":[0,0,0,0,0,0,0,0,0,0,0,0,0,0,0,0,0,0,0,0,0,0,0,0,0,0,0,0,0,0,0,0,0,0,0,0,0,0,0,0,0,0,0,0,0,0,0,0,0,0,0,0,0,0,0,0,0,0,-1.9321,-1.9321,0,-1.9349,-1.9349,-1.935,-1.9329,-1.9328,-1.9327,-1.9326,-1.9353,-1.9354,-1.9356,0,0,0,0,0,0,0,0,0,0,0,0,0,-1.9248,-1.925,-1.9321,-1.9321,-1.9322,-1.9349,-1.9349,-1.935,-1.9329,-1.9328,-1.9327,-1.9326,-1.9352,-1.9354,-1.9356,0,0,0,0,0,0,0,0,0,0,0,0,0,-1.9278,-1.925,-1.9321,-1.9315,-1.9314,-1.9349,-1.9349,-1.935,-1.9329,-1.9328,-1.9327,-1.9325,-1.9352,-1.9354,-1.9356,-1.9398,0,0,-1.9363,-1.9364,0,0,0,0,0,0,0,0,-1.9277,-1.9281,-1.9315,-1.9315,-1.9315,-1.9334,-1.9333,-1.9366,-1.933,-1.9324,-1.9326,-1.9325,-1.9348,-1.935,-1.9358,-1.9399,-1.94,-1.9364,-1.9365,-1.9366,-1.9367,0,0,0,0,0,0,0,-1.9275,-1.928,-1.9332,-1.9316,-1.9316,-1.931,-1.9313,-1.9339,-1.9343,-1.9324,-1.9323,-1.9326,-1.9347,-1.9356,-1.9359,-1.9401,-1.9364,-1.9366,-1.9367,-1.9368,-1.9477,-1.9478,0,0,0,0,0,0,-1.9273,-1.9278,-1.9331,-1.9333,-1.9292,-1.9312,-1.9316,-1.9329,-1.9342,-1.9343,-1.9327,-1.9325,-1.9353,-1.9356,-1.936,-1.9409,-1.9366,-1.9368,-1.937,-1.9475,-1.9477,-1.9479,0,0,0,0,0,0,-1.9272,-1.9278,-1.933,-1.9305,-1.9311,-1.9315,-1.9331,-1.9331,-1.9339,-1.9345,-1.9345,-1.9336,-1.9352,-1.9356,-1.9389,-1.941,-1.9369,-1.9371,-1.9474,-1.9476,-1.9478,-1.9509,0,0,0,0,0,0,-1.927,-1.9278,-1.9294,-1.9306,-1.9313,-1.9359,-1.9332,-1.9332,-1.9344,-1.9341,-1.9353,-1.9354,-1.9351,-1.9385,-1.9391,-1.9412,-1.9373,-1.9472,-1.9475,-1.9477,-1.9506,-1.9512,-1.9517,0,0,0,0,0,-1.9267,-1.9301,-1.9295,-1.9301,-1.9333,-1.936,-1.9364,-1.9361,-1.9345,-1.9361,-1.9365,-1.9353,-1.9407,-1.9389,-1.9395,-1.9417,-1.947,-1.9474,-1.9477,-1.9503,-1.951,-1.9516,0,0,0,0,0,0,-1.9291,-1.9302,-1.9296,-1.9334,-1.9346,-1.9357,-1.9377,-1.9369,-1.9385,-1.9382,-1.9377,-1.938,-1.9414,-1.9419,-1.9398,-1.9458,-1.9436,-1.9441,-1.9454,-1.9461,-1.9466,-1.9464,-1.9375,0,0,0,0,0,-1.93,-1.9322,-1.9331,-1.9364,-1.9371,-1.9373,-1.9384,-1.9381,-1.9393,-1.9398,-1.9404,-1.9416,-1.9435,-1.9448,-1.9466,-1.9506,-1.9509,-1.9525,-1.953,-1.9535,-1.9539,-1.9561,-1.9568,-1.949,-1.949,-1.949,0,0,-1.932,-1.933,-1.9343,-1.9369,-1.9378,-1.94,-1.9377,-1.9401,-1.9418,-1.9402,-1.9433,-1.9438,-1.945,-1.9487,-1.9503,-1.9492,-1.9561,-1.9539,-1.9543,-1.9544,-1.9565,-1.9572,-1.9579,-1.9492,-1.9492,-1.9491,0,0,-1.9368,-1.9378,-1.9406,-1.9416,-1.9431,-1.9432,-1.9439,-1.9451,-1.9454,-1.9485,-1.9473,-1.9492,-1.9526,-1.9536,-1.9545,-1.9598,-1.9588,-1.9604,-1.9632,-1.9654,-1.966,-1.9665,-1.9684,-1.9691,-1.9608,-1.9608,-1.9608,0,-1.9391,-1.9425,-1.9422,-1.9448,-1.9459,-1.9446,-1.9475,-1.9485,-1.9504,-1.9512,-1.95,-1.9542,-1.955,-1.9589,-1.9602,-1.9609,-1.9617,-1.9602,-1.9659,-1.9665,-1.967,-1.9688,-1.9695,-1.961,-1.961,-1.9609,-1.9609,0,-1.9452,-1.9476,-1.9497,-1.9518,-1.9531,-1.9559,-1.9559,-1.9574,-1.9569,-1.9572,-1.9604,-1.9613,-1.9633,-1.9642,-1.9637,-1.968,-1.9673,-1.966,-1.9637,-1.9679,-1.9696,-1.9703,-1.9613,-1.9612,-1.9611,-1.9611,0,0,-1.9515,-1.9534,-1.9542,-1.9551,-1.9567,-1.9584,-1.9611,-1.9631,-1.9644,-1.9658,-1.968,-1.9709,-1.9697,-1.9708,-1.9705,-1.9723,-1.9765,-1.9708,-1.9708,-1.9718,-1.9812,-1.9822,-1.983,-1.9758,-1.9759,-1.976,-1.9811,0,-1.9564,-1.9611,-1.961,-1.9653,-1.9675,-1.9664,-1.9687,-1.9698,-1.9702,-1.972,-1.9723,-1.9744,-1.9727,-1.9734,-1.9752,-1.9756,-1.9783,-1.9752,-1.9778,-1.9779,-1.9775,-1.9839,-1.9849,-1.9896,-1.9818,-1.9819,-1.982,0,-1.9627,-1.9645,-1.9691,-1.9703,-1.9712,-1.9733,-1.9752,-1.977,-1.9783,-1.9784,-1.9797,-1.9791,-1.9817,-1.9794,-1.9831,-1.9809,-1.982,-1.9824,-1.9825,-1.9828,-1.9802,-1.9843,-1.9912,-1.9919,-1.983,-1.9829,-1.9828,0,-1.9669,-1.9703,-1.9735,-1.9744,-1.9759,-1.9774,-1.9781,-1.9793,-1.9806,-1.9822,-1.983,-1.9849,-1.9859,-1.9874,-1.9873,-1.9856,-1.991,-1.9887,-1.9911,-1.9911,-1.9923,-1.9922,-1.9994,-1.993,-1.993,-1.9929,-1.9929,0,-1.9723,-1.9752,-1.9754,-1.9774,-1.9806,-1.9804,-1.9835,-1.9841,-1.9851,-1.9872,-1.9863,-1.9882,-1.9879,-1.9899,-1.9898,-1.9928,-1.9933,-1.9934,-1.9934,-1.9935,-1.9935,-1.9942,-1.9939,-1.9931,-1.9931,-1.9931,-1.993,0,-1.9775,-1.9778,-1.9812,-1.9825,-1.9828,-1.9851,-1.9862,-1.988,-1.9883,-1.9909,-1.9915,-1.9919,-1.9941,-1.9942,-1.9967,-1.9966,-2.0004,-1.9999,-2.0,-1.9999,-2.0023,-2.0021,-2.0102,-2.0113,-2.0041,-2.0042,-2.0043,0,-1.981,-1.9832,-1.9847,-1.986,-1.9869,-1.989,-1.9903,-1.9902,-1.9916,-1.9933,-1.9949,-1.9971,-1.9988,-2.0024,-2.0029,-2.0048,-2.0044,-2.0072,-2.0047,-2.0048,-2.0045,-2.0044,-2.0046,-2.0076,-2.0077,-2.0078,-2.0078,0,-1.9871,-1.9872,-1.9891,-1.9912,-1.9928,-1.9943,-1.9958,-1.9969,-1.9969,-1.9985,-2.0008,-2.0022,-2.0048,-2.007,-2.0088,-2.0095,-2.0087,-2.0086,-2.0093,-2.0094,-2.0094,-2.0095,-2.0013,-2.0084,-2.0083,-2.0083,-2.0083,-2.0082,-1.9915,-1.9935,-1.9949,-1.9971,-1.9982,-1.9996,-2.0014,-2.002,-2.0039,-2.0061,-2.0059,-2.0084,-2.0097,-2.0122,-2.013,-2.015,-2.0141,-2.015,-2.0153,-2.0155,-2.0158,-2.0091,-2.0153,-2.0153,-2.0153,-2.0153,-2.0153,0,-1.9977,-1.9985,-2.0006,-2.0027,-2.0044,-2.0036,-2.0052,-2.0067,-2.009,-2.0103,-2.012,-2.0147,-2.0168,-2.0175,-2.0195,-2.0209,-2.0206,-2.0215,-2.0214,-2.0215,-2.0165,-2.0157,-2.0217,-2.0217,-2.0217,-2.0217,-2.0217,-2.0217,-2.0011,-2.0043,-2.0045,-2.0083,-2.0091,-2.0117,-2.0126,-2.0139,-2.015,-2.018,-2.0198,-2.0203,-2.0213,-2.0234,-2.0253,-2.0254,-2.0262,-2.0273,-2.0273,-2.0225,-2.0219,-2.0213,-2.0205,-2.0274,-2.0274,-2.0321,-2.0322,-2.0322]}]]